Time,TemperatureF,DewpointF,PressureIn,WindDirection,WindDirectionDegrees,WindSpeedMPH,WindSpeedGustMPH,Humidity,HourlyPrecipIn,Conditions,Clouds,dailyrainin,SolarRadiationWatts/m^2,SoftwareType,DateUTC
2013-03-03 00:11:00,37.7,29.0,29.84,East,93,3.0,9.0,71,0.00,,,0.00,0,weatherlink.com 1.10,2013-03-03 07:11:00,
2013-03-03 00:26:00,36.8,29.0,29.84,SSW,195,1.0,5.0,72,0.00,,,0.00,0,weatherlink.com 1.10,2013-03-03 07:26:00,
2013-03-03 00:42:00,34.9,28.0,29.83,SSE,158,1.0,3.0,77,0.00,,,0.00,0,weatherlink.com 1.10,2013-03-03 07:42:00,
2013-03-03 00:57:00,34.6,28.0,29.82,SSE,158,2.0,3.0,78,0.00,,,0.00,0,weatherlink.com 1.10,2013-03-03 07:57:00,
2013-03-03 01:12:00,35.6,28.0,29.82,West,278,3.0,4.0,75,0.00,,,0.00,0,weatherlink.com 1.10,2013-03-03 08:12:00,
2013-03-03 01:27:00,33.8,28.0,29.81,NNE,25,0.0,2.0,80,0.00,,,0.00,0,weatherlink.com 1.10,2013-03-03 08:27:00,
2013-03-03 01:42:00,34.1,29.0,29.81,ENE,61,4.0,5.0,80,0.00,,,0.00,0,weatherlink.com 1.10,2013-03-03 08:42:00,
2013-03-03 01:57:00,33.6,28.0,29.81,ESE,114,0.0,3.0,79,0.00,,,0.00,0,weatherlink.com 1.10,2013-03-03 08:57:00,
2013-03-03 02:12:00,34.0,28.0,29.80,ENE,71,1.0,4.0,80,0.00,,,0.00,0,weatherlink.com 1.10,2013-03-03 09:12:00,
2013-03-03 02:27:00,31.2,27.0,29.79,SE,127,3.0,6.0,83,0.00,,,0.00,0,weatherlink.com 1.10,2013-03-03 09:27:00,
2013-03-03 02:42:00,32.4,28.0,29.79,SSE,152,1.0,3.0,82,0.00,,,0.00,0,weatherlink.com 1.10,2013-03-03 09:42:00,
2013-03-03 02:57:00,31.7,27.0,29.77,SSE,152,3.0,4.0,81,0.00,,,0.00,0,weatherlink.com 1.10,2013-03-03 09:57:00,
2013-03-03 03:12:00,31.6,26.0,29.77,WNW,285,0.0,7.0,80,0.00,,,0.00,0,weatherlink.com 1.10,2013-03-03 10:12:00,
2013-03-03 03:27:00,30.7,26.0,29.76,SSE,149,0.0,2.0,83,0.00,,,0.00,0,weatherlink.com 1.10,2013-03-03 10:27:00,
2013-03-03 03:42:00,30.5,26.0,29.76,SSE,159,2.0,4.0,84,0.00,,,0.00,0,weatherlink.com 1.10,2013-03-03 10:42:00,
2013-03-03 03:57:00,31.7,27.0,29.75,South,185,3.0,7.0,83,0.00,,,0.00,0,weatherlink.com 1.10,2013-03-03 10:57:00,
2013-03-03 04:12:00,31.1,26.0,29.75,South,185,1.0,5.0,82,0.00,,,0.00,0,weatherlink.com 1.10,2013-03-03 11:12:00,
2013-03-03 04:27:00,31.3,26.0,29.75,South,177,4.0,6.0,82,0.00,,,0.00,0,weatherlink.com 1.10,2013-03-03 11:27:00,
2013-03-03 04:42:00,32.2,27.0,29.74,SSW,193,1.0,3.0,80,0.00,,,0.00,0,weatherlink.com 1.10,2013-03-03 11:42:00,
2013-03-03 04:57:00,30.9,26.0,29.74,SSW,194,1.0,2.0,83,0.00,,,0.00,0,weatherlink.com 1.10,2013-03-03 11:57:00,
2013-03-03 05:12:00,29.9,26.0,29.74,SSW,194,0.0,2.0,84,0.00,,,0.00,0,weatherlink.com 1.10,2013-03-03 12:12:00,
2013-03-03 05:28:00,29.7,26.0,29.73,SSW,193,0.0,0.0,86,0.00,,,0.00,0,weatherlink.com 1.10,2013-03-03 12:28:00,
2013-03-03 05:43:00,29.3,25.0,29.74,SSW,204,2.0,4.0,83,0.00,,,0.00,0,weatherlink.com 1.10,2013-03-03 12:43:00,
2013-03-03 05:58:00,30.1,27.0,29.74,South,191,0.0,7.0,87,0.00,,,0.00,0,weatherlink.com 1.10,2013-03-03 12:58:00,
2013-03-03 06:13:00,29.6,25.0,29.73,SSW,197,2.0,4.0,82,0.00,,,0.00,0,weatherlink.com 1.10,2013-03-03 13:13:00,
2013-03-03 06:28:00,29.4,25.0,29.73,SSW,201,1.0,4.0,84,0.00,,,0.00,0,weatherlink.com 1.10,2013-03-03 13:28:00,
2013-03-03 06:43:00,29.0,25.0,29.73,SSW,201,1.0,3.0,86,0.00,,,0.00,0,weatherlink.com 1.10,2013-03-03 13:43:00,
2013-03-03 06:58:00,29.4,26.0,29.73,SSW,201,5.0,5.0,86,0.00,,,0.00,18,weatherlink.com 1.10,2013-03-03 13:58:00,
2013-03-03 07:13:00,30.8,27.0,29.73,SSW,211,3.0,4.0,84,0.00,,,0.00,32,weatherlink.com 1.10,2013-03-03 14:13:00,
2013-03-03 07:28:00,31.1,27.0,29.72,South,177,0.0,2.0,84,0.00,,,0.00,39,weatherlink.com 1.10,2013-03-03 14:28:00,
2013-03-03 07:43:00,31.5,27.0,29.71,South,176,0.0,2.0,84,0.00,,,0.00,54,weatherlink.com 1.10,2013-03-03 14:43:00,
2013-03-03 07:58:00,32.2,28.0,29.70,South,171,3.0,5.0,83,0.00,,,0.00,49,weatherlink.com 1.10,2013-03-03 14:58:00,
2013-03-03 08:13:00,33.0,28.0,29.70,SSW,195,0.0,3.0,83,0.00,,,0.00,51,weatherlink.com 1.10,2013-03-03 15:13:00,
2013-03-03 08:28:00,34.6,29.0,29.70,South,189,4.0,7.0,80,0.00,,,0.00,46,weatherlink.com 1.10,2013-03-03 15:28:00,
2013-03-03 08:43:00,36.4,30.0,29.70,SW,228,0.0,4.0,77,0.00,,,0.00,63,weatherlink.com 1.10,2013-03-03 15:43:00,
2013-03-03 08:58:00,36.5,30.0,29.70,SW,229,0.0,4.0,77,0.00,,,0.00,79,weatherlink.com 1.10,2013-03-03 15:58:00,
2013-03-03 09:13:00,36.8,30.0,29.69,ENE,62,2.0,4.0,76,0.00,,,0.00,120,weatherlink.com 1.10,2013-03-03 16:13:00,
2013-03-03 09:28:00,37.8,31.0,29.68,East,89,0.0,3.0,76,0.00,,,0.00,153,weatherlink.com 1.10,2013-03-03 16:28:00,
2013-03-03 09:58:00,37.9,31.0,29.68,North,8,2.0,7.0,77,0.00,,,0.00,179,weatherlink.com 1.10,2013-03-03 16:58:00,
2013-03-03 10:13:00,39.3,31.0,29.67,ENE,77,2.0,3.0,72,0.00,,,0.00,116,weatherlink.com 1.10,2013-03-03 17:13:00,
2013-03-03 10:29:00,40.7,31.0,29.66,ENE,77,2.0,3.0,68,0.00,,,0.00,227,weatherlink.com 1.10,2013-03-03 17:29:00,
2013-03-03 10:44:00,42.8,32.0,29.65,SSW,195,1.0,4.0,65,0.00,,,0.00,221,weatherlink.com 1.10,2013-03-03 17:44:00,
2013-03-03 10:59:00,44.6,33.0,29.64,SW,235,0.0,4.0,65,0.00,,,0.00,559,weatherlink.com 1.10,2013-03-03 17:59:00,
2013-03-03 11:14:00,45.0,35.0,29.63,WSW,240,5.0,5.0,67,0.00,,,0.00,279,weatherlink.com 1.10,2013-03-03 18:14:00,
2013-03-03 11:29:00,46.0,34.0,29.61,WSW,241,2.0,3.0,64,0.00,,,0.00,517,weatherlink.com 1.10,2013-03-03 18:29:00,
2013-03-03 11:59:00,51.3,34.0,29.60,WSW,242,1.0,2.0,53,0.00,,,0.00,348,weatherlink.com 1.10,2013-03-03 18:59:00,
2013-03-03 12:14:00,52.2,34.0,29.58,WSW,242,0.0,1.0,50,0.00,,,0.00,371,weatherlink.com 1.10,2013-03-03 19:14:00,
2013-03-03 12:29:00,51.7,32.0,29.56,SE,129,1.0,8.0,48,0.00,,,0.00,364,weatherlink.com 1.10,2013-03-03 19:29:00,
2013-03-03 12:44:00,50.8,33.0,29.55,SSE,156,5.0,10.0,51,0.00,,,0.00,345,weatherlink.com 1.10,2013-03-03 19:44:00,
2013-03-03 12:59:00,51.4,33.0,29.55,SSE,149,5.0,7.0,50,0.00,,,0.00,290,weatherlink.com 1.10,2013-03-03 19:59:00,
2013-03-03 13:14:00,52.2,33.0,29.53,ESE,115,2.0,5.0,49,0.00,,,0.00,698,weatherlink.com 1.10,2013-03-03 20:14:00,
2013-03-03 13:29:00,53.2,34.0,29.53,ESE,107,2.0,5.0,48,0.00,,,0.00,626,weatherlink.com 1.10,2013-03-03 20:29:00,
2013-03-03 13:44:00,52.8,33.0,29.53,East,92,2.0,8.0,48,0.00,,,0.00,610,weatherlink.com 1.10,2013-03-03 20:44:00,
2013-03-03 13:59:00,53.3,34.0,29.52,East,81,1.0,2.0,49,0.00,,,0.00,192,weatherlink.com 1.10,2013-03-03 20:59:00,
2013-03-03 14:14:00,54.8,34.0,29.52,NE,54,3.0,5.0,45,0.00,,,0.00,190,weatherlink.com 1.10,2013-03-03 21:14:00,
2013-03-03 14:29:00,53.5,34.0,29.52,South,169,0.0,2.0,47,0.00,,,0.00,211,weatherlink.com 1.10,2013-03-03 21:29:00,
2013-03-03 14:44:00,53.2,34.0,29.52,SSE,162,0.0,6.0,48,0.00,,,0.00,186,weatherlink.com 1.10,2013-03-03 21:44:00,
2013-03-03 14:59:00,53.6,34.0,29.51,SSE,162,0.0,1.0,47,0.00,,,0.00,244,weatherlink.com 1.10,2013-03-03 21:59:00,
2013-03-03 15:14:00,52.3,35.0,29.51,NNE,27,0.0,3.0,52,0.00,,,0.00,127,weatherlink.com 1.10,2013-03-03 22:14:00,
2013-03-03 15:29:00,52.1,34.0,29.50,ENE,77,0.0,3.0,50,0.00,,,0.00,176,weatherlink.com 1.10,2013-03-03 22:29:00,
2013-03-03 15:44:00,53.2,34.0,29.50,ENE,77,0.0,1.0,49,0.00,,,0.00,352,weatherlink.com 1.10,2013-03-03 22:44:00,
2013-03-03 15:59:00,54.4,35.0,29.50,ENE,77,0.0,1.0,49,0.00,,,0.00,297,weatherlink.com 1.10,2013-03-03 22:59:00,
2013-03-03 16:14:00,53.8,33.0,29.49,East,95,3.0,5.0,45,0.00,,,0.00,253,weatherlink.com 1.10,2013-03-03 23:14:00,
2013-03-03 16:29:00,54.7,34.0,29.48,ESE,108,0.0,2.0,46,0.00,,,0.00,207,weatherlink.com 1.10,2013-03-03 23:29:00,
2013-03-03 16:44:00,52.9,33.0,29.49,NNW,337,4.0,7.0,47,0.00,,,0.00,155,weatherlink.com 1.10,2013-03-03 23:44:00,
2013-03-03 16:59:00,52.5,32.0,29.48,North,359,0.0,0.0,46,0.00,,,0.00,98,weatherlink.com 1.10,2013-03-03 23:59:00,
2013-03-03 17:14:00,52.1,32.0,29.50,NNE,18,0.0,2.0,46,0.00,,,0.00,58,weatherlink.com 1.10,2013-03-04 00:14:00,
2013-03-03 17:29:00,34.7,29.0,29.60,NW,316,39.0,54.0,78,0.00,,,0.00,26,weatherlink.com 1.10,2013-03-04 00:29:00,
2013-03-03 17:44:00,32.9,28.0,29.61,NW,322,36.0,57.0,82,0.00,,,0.00,9,weatherlink.com 1.10,2013-03-04 00:44:00,
2013-03-03 17:59:00,32.1,28.0,29.62,NNW,330,48.0,54.0,83,0.00,,,0.00,0,weatherlink.com 1.10,2013-03-04 00:59:00,
2013-03-03 18:14:00,30.9,27.0,29.63,NW,305,26.0,40.0,84,0.00,,,0.00,0,weatherlink.com 1.10,2013-03-04 01:14:00,
2013-03-03 18:29:00,30.5,26.0,29.65,North,359,23.0,49.0,82,0.00,,,0.00,0,weatherlink.com 1.10,2013-03-04 01:29:00,
2013-03-03 18:44:00,30.2,26.0,29.68,NNW,337,26.0,40.0,84,0.00,,,0.00,0,weatherlink.com 1.10,2013-03-04 01:44:00,
2013-03-03 18:59:00,29.7,26.0,29.67,NW,326,26.0,41.0,86,0.00,,,0.00,0,weatherlink.com 1.10,2013-03-04 01:59:00,
2013-03-03 19:14:00,29.7,25.0,29.70,NNW,348,23.0,34.0,84,0.00,,,0.00,0,weatherlink.com 1.10,2013-03-04 02:14:00,
2013-03-03 19:29:00,29.4,25.0,29.71,NNW,335,17.0,33.0,84,0.00,,,0.00,0,weatherlink.com 1.10,2013-03-04 02:29:00,
2013-03-03 19:44:00,28.9,26.0,29.71,NNW,335,18.0,34.0,88,0.00,,,0.00,0,weatherlink.com 1.10,2013-03-04 02:44:00,
2013-03-03 19:59:00,28.9,26.0,29.71,North,354,28.0,36.0,87,0.00,,,0.00,0,weatherlink.com 1.10,2013-03-04 02:59:00,
2013-03-03 20:14:00,29.2,25.0,29.70,North,359,24.0,39.0,85,0.00,,,0.00,0,weatherlink.com 1.10,2013-03-04 03:14:00,
2013-03-03 20:29:00,29.3,25.0,29.72,NW,326,24.0,44.0,84,0.00,,,0.00,0,weatherlink.com 1.10,2013-03-04 03:29:00,
2013-03-03 20:44:00,28.5,25.0,29.72,NNW,343,26.0,44.0,85,0.00,,,0.00,0,weatherlink.com 1.10,2013-03-04 03:44:00,
2013-03-03 20:59:00,28.1,25.0,29.73,North,359,25.0,38.0,86,0.00,,,0.00,0,weatherlink.com 1.10,2013-03-04 03:59:00,
2013-03-03 21:14:00,28.6,24.0,29.75,North,359,22.0,37.0,84,0.00,,,0.00,0,weatherlink.com 1.10,2013-03-04 04:14:00,
2013-03-03 21:29:00,29.2,24.0,29.75,North,359,26.0,40.0,80,0.00,,,0.00,0,weatherlink.com 1.10,2013-03-04 04:29:00,
2013-03-03 21:44:00,28.6,24.0,29.78,NNW,340,14.0,31.0,84,0.00,,,0.00,0,weatherlink.com 1.10,2013-03-04 04:44:00,
2013-03-03 21:59:00,29.2,23.0,29.79,NW,326,14.0,23.0,79,0.00,,,0.00,0,weatherlink.com 1.10,2013-03-04 04:59:00,
2013-03-03 22:14:00,30.3,22.0,29.80,NNW,345,19.0,30.0,71,0.00,,,0.00,0,weatherlink.com 1.10,2013-03-04 05:14:00,
2013-03-03 22:29:00,30.6,21.0,29.80,NW,318,18.0,31.0,67,0.00,,,0.00,0,weatherlink.com 1.10,2013-03-04 05:29:00,
2013-03-03 22:44:00,30.6,21.0,29.80,NNW,327,18.0,30.0,67,0.00,,,0.00,0,weatherlink.com 1.10,2013-03-04 05:44:00,
2013-03-03 22:59:00,30.7,20.0,29.81,NW,315,16.0,23.0,64,0.00,,,0.00,0,weatherlink.com 1.10,2013-03-04 05:59:00,
2013-03-03 23:14:00,31.5,18.0,29.81,NW,310,11.0,26.0,58,0.00,,,0.00,0,weatherlink.com 1.10,2013-03-04 06:14:00,
2013-03-03 23:29:00,31.7,18.0,29.81,NW,309,11.0,20.0,58,0.00,,,0.00,0,weatherlink.com 1.10,2013-03-04 06:29:00,
2013-03-03 23:44:00,31.1,18.0,29.81,WNW,298,8.0,15.0,59,0.00,,,0.00,0,weatherlink.com 1.10,2013-03-04 06:44:00,
2013-03-03 23:59:00,31.8,17.0,29.81,North,359,8.0,19.0,55,0.00,,,0.00,0,weatherlink.com 1.10,2013-03-04 06:59:00,